軌道要素
Epoch 2013 Jan. 28.0 TT = JDT 2456320.5
T 2013 Feb. 8.55537 TT MPC
q 1.8208469 (2000.0) P Q
n 0.08355044 Peri. 1.26877 +0.64019910 -0.60023666
a 5.1820734 Node 49.20664 +0.69912280 +0.19656873
e 0.6486258 Incl. 39.29258 +0.31839036 +0.77529135
P 11.8
From 294 observations 2012 Oct. 17-2013 Apr. 18, mean residual 0".4.
|